JD,Date,Time,Lat,Long,"xCO2,w","xCO2,a",Eq Temp,Pressure,SST (TSG),Sal (TSG),"f(CO2)w, equil","f(CO2)w, in situ",f(CO2)a,?fCO2
,,,,,,,,,,,,,,
212.469,7/31/95,11:16:04,23.50,58.92,430.19,362.47,30.50,996.26,30.58,36.48,403.80,405.03,339.88,65.14
212.473,7/31/95,11:20:46,23.49,58.93,429.85,362.47,30.92,996.21,30.79,36.60,403.26,401.24,339.88,61.36
212.476,7/31/95,11:25:17,23.48,58.95,429.55,362.47,30.96,996.15,30.15,36.89,403.60,391.79,339.88,51.91
212.479,7/31/95,11:29:46,23.47,58.96,425.28,362.47,30.43,996.21,29.79,36.75,399.97,390.52,339.88,50.64
212.490,7/31/95,11:46:17,23.44,59.02,416.70,362.47,31.14,996.11,31.05,36.68,390.61,389.29,339.88,49.41
212.494,7/31/95,11:50:47,23.42,59.03,414.20,362.47,31.17,996.13,30.90,36.78,388.43,384.57,339.88,44.69
212.497,7/31/95,11:55:17,23.42,59.05,413.10,362.47,31.02,996.14,30.65,36.83,387.66,382.29,339.88,42.41
212.500,7/31/95,11:59:47,23.40,59.06,411.50,362.47,30.79,996.13,29.53,37.13,387.22,369.56,339.88,29.68
212.511,7/31/95,12:16:05,23.37,59.12,415.25,362.16,30.58,996.14,30.40,36.64,389.91,387.24,339.84,47.40
212.514,7/31/95,12:20:47,23.37,59.13,418.36,362.16,30.67,996.13,30.42,36.68,392.81,389.15,339.84,49.32
212.518,7/31/95,12:25:17,23.36,59.15,421.28,362.16,30.63,996.12,29.96,36.85,396.01,386.32,339.84,46.48
212.521,7/31/95,12:29:47,23.36,59.16,421.25,362.16,30.16,996.08,29.64,36.69,396.26,388.77,339.84,48.94
212.532,7/31/95,12:46:17,23.33,59.23,416.45,362.16,30.87,996.15,30.48,36.83,390.97,385.46,339.84,45.62
212.535,7/31/95,12:50:47,23.33,59.24,408.86,362.16,30.75,996.17,30.83,36.66,383.50,384.65,339.84,44.81
212.538,7/31/95,12:55:17,23.31,59.26,407.10,362.16,31.02,996.14,30.92,36.76,381.76,380.31,339.84,40.47
212.542,7/31/95,12:59:47,23.30,59.27,406.35,362.16,31.12,996.26,30.93,36.82,381.09,378.40,339.84,38.56
212.553,7/31/95,13:16:05,23.28,59.32,411.06,362.15,31.53,996.35,31.40,36.82,385.07,383.26,339.41,43.86
212.556,7/31/95,13:20:47,23.27,59.34,411.26,362.15,31.54,996.38,31.39,36.83,385.28,383.14,339.41,43.73
212.559,7/31/95,13:25:17,23.27,59.36,410.66,362.15,31.55,996.37,31.35,36.86,384.75,381.98,339.41,42.57
212.562,7/31/95,13:29:47,23.25,59.37,409.86,362.15,31.51,996.41,31.36,36.86,384.01,381.85,339.41,42.45
212.574,7/31/95,13:46:17,23.22,59.43,406.88,362.15,31.41,996.42,31.23,36.89,381.35,378.83,339.41,39.43
212.577,7/31/95,13:50:46,23.21,59.44,406.61,362.15,31.40,996.41,31.13,36.92,381.20,377.47,339.41,38.06
212.580,7/31/95,13:55:17,23.21,59.46,406.50,362.15,31.31,996.44,31.20,36.86,381.03,379.45,339.41,40.05
212.583,7/31/95,13:59:46,23.20,59.48,406.26,362.15,31.36,996.45,31.19,36.90,380.82,378.49,339.41,39.08
212.595,7/31/95,14:16:05,23.21,59.52,405.59,362.17,31.18,996.66,30.96,36.88,380.50,377.40,339.81,37.59
212.598,7/31/95,14:20:47,23.20,59.53,411.37,362.17,31.14,996.62,30.98,36.87,385.89,383.57,339.81,43.76
212.601,7/31/95,14:25:17,23.20,59.53,414.93,362.17,31.17,996.67,30.98,36.87,389.25,386.61,339.81,46.81
212.604,7/31/95,14:29:47,23.20,59.53,411.83,362.17,31.16,996.76,30.98,36.87,386.37,383.88,339.81,44.07
212.615,7/31/95,14:46:17,23.20,59.54,407.31,362.17,31.16,996.89,30.98,36.87,382.18,379.70,339.81,39.89
212.619,7/31/95,14:50:47,23.20,59.54,406.66,362.17,31.15,996.89,30.97,36.87,381.59,379.08,339.81,39.27
212.622,7/31/95,14:55:17,23.20,59.54,405.72,362.17,31.14,996.96,30.98,36.87,380.72,378.41,339.81,38.61
212.625,7/31/95,14:59:47,23.20,59.54,405.36,362.17,31.14,997.00,30.97,36.87,380.40,378.07,339.81,38.27
212.636,7/31/95,15:16:05,23.20,59.54,405.85,361.98,31.12,997.07,30.95,36.87,380.91,378.53,341.33,37.20
212.639,7/31/95,15:20:47,23.20,59.54,405.92,361.98,31.12,997.05,30.95,36.87,380.96,378.55,341.33,37.22
212.643,7/31/95,15:25:17,23.20,59.54,405.82,361.98,31.11,997.11,30.65,37.01,381.19,374.87,341.33,33.54
212.646,7/31/95,15:29:47,23.20,59.54,406.55,361.98,30.82,997.11,30.68,36.78,381.84,379.95,341.33,38.63
212.657,7/31/95,15:46:17,23.21,59.54,408.80,361.98,29.63,997.17,30.08,36.40,384.55,391.07,341.33,49.75
212.660,7/31/95,15:50:47,23.21,59.54,404.33,361.98,30.53,997.17,30.82,36.67,379.64,383.69,341.33,42.37
212.663,7/31/95,15:55:17,23.20,59.55,403.07,361.98,30.94,997.22,30.90,36.80,378.41,377.84,341.33,36.52
212.667,7/31/95,15:59:47,23.20,59.55,402.71,361.98,31.01,997.30,30.90,36.86,378.10,376.58,341.33,35.25
212.678,7/31/95,16:16:05,23.19,59.56,403.80,362.24,31.01,997.34,30.85,36.87,379.19,377.01,340.46,36.56
212.681,7/31/95,16:20:48,23.19,59.56,403.70,362.24,30.99,997.42,30.82,36.87,379.16,376.76,340.46,36.30
212.684,7/31/95,16:25:16,23.19,59.56,403.50,362.24,30.96,997.49,30.79,36.87,379.03,376.67,340.46,36.22
212.687,7/31/95,16:29:46,23.19,59.57,403.21,362.24,30.92,997.56,30.75,36.87,378.81,376.44,340.46,35.98
212.699,7/31/95,16:46:17,23.18,59.57,402.55,362.24,30.80,997.72,30.63,36.86,378.37,375.89,340.46,35.43
212.702,7/31/95,16:50:47,23.17,59.58,401.33,362.24,30.79,997.74,30.61,36.86,377.25,374.78,340.46,34.32
212.705,7/31/95,16:55:17,23.17,59.58,401.01,362.24,30.77,997.76,30.60,36.86,376.97,374.63,340.46,34.17
212.708,7/31/95,16:59:47,23.17,59.57,400.70,362.24,30.77,997.79,30.58,36.87,376.70,374.11,340.46,33.65
212.720,7/31/95,17:16:05,23.17,59.57,400.18,362.07,30.70,997.91,30.53,36.86,376.30,373.94,340.59,33.35
212.723,7/31/95,17:20:47,23.17,59.57,399.85,362.07,30.69,997.89,30.49,36.88,376.03,373.29,340.59,32.70
212.726,7/31/95,17:25:17,23.17,59.57,399.66,362.07,30.64,997.94,30.40,36.88,375.95,372.59,340.59,32.00
212.729,7/31/95,17:29:47,23.16,59.57,399.95,362.07,30.57,997.94,30.38,36.85,376.25,373.56,340.59,32.97
212.740,7/31/95,17:46:17,23.16,59.58,399.88,362.07,30.59,997.97,30.43,36.85,376.15,373.90,340.59,33.31
212.744,7/31/95,17:50:47,23.15,59.58,399.67,362.07,30.60,997.95,30.42,36.86,375.94,373.43,340.59,32.84
212.747,7/31/95,17:55:17,23.15,59.58,399.57,362.07,30.59,997.91,30.40,36.86,375.86,373.30,340.59,32.71
212.750,7/31/95,17:59:47,23.14,59.58,399.29,362.07,30.58,997.90,30.41,36.85,375.58,373.31,340.59,32.72
212.761,7/31/95,18:16:05,23.14,59.57,399.16,362.13,30.55,997.87,30.36,36.87,375.50,372.80,340.51,32.29
212.764,7/31/95,18:20:47,23.14,59.57,399.36,362.13,30.52,997.85,30.39,36.84,375.64,373.82,340.51,33.32
212.768,7/31/95,18:25:17,23.13,59.57,399.23,362.13,30.55,997.84,30.42,36.85,375.49,373.67,340.51,33.16
212.771,7/31/95,18:29:47,23.13,59.57,399.23,362.13,30.59,997.79,30.46,36.85,375.44,373.60,340.51,33.10
212.782,7/31/95,18:46:17,23.12,59.56,399.16,362.13,30.62,997.71,30.47,36.86,375.33,373.24,340.51,32.74
212.785,7/31/95,18:50:46,23.12,59.56,402.41,362.13,30.62,997.71,30.48,36.86,378.38,376.38,340.51,35.87
212.788,7/31/95,18:55:17,23.13,59.56,402.39,362.13,30.64,997.67,30.49,36.86,378.33,376.32,340.51,35.81
212.792,7/31/95,18:59:48,23.14,59.58,402.15,362.13,30.65,997.65,30.49,36.88,378.09,375.86,340.51,35.35
212.803,7/31/95,19:16:05,23.19,59.61,399.36,361.63,30.32,997.67,30.37,36.71,375.59,376.26,339.59,36.67
212.806,7/31/95,19:20:47,23.20,59.62,399.29,361.63,30.59,997.61,30.59,36.77,375.30,375.29,339.59,35.70
212.809,7/31/95,19:25:17,23.21,59.63,400.41,361.63,30.75,997.59,30.73,36.81,376.21,375.86,339.59,36.27
212.812,7/31/95,19:29:47,23.23,59.65,401.46,361.63,30.86,997.66,30.74,36.85,377.21,375.65,339.59,36.05
212.824,7/31/95,19:46:17,23.24,59.69,404.06,361.63,30.99,997.41,30.94,36.83,379.37,378.66,339.59,39.07
212.827,7/31/95,19:50:47,23.24,59.69,405.28,361.63,31.04,997.37,30.92,36.85,380.52,378.81,339.59,39.22
212.830,7/31/95,19:55:17,23.24,59.69,405.23,361.63,31.01,997.38,30.90,36.85,380.49,378.92,339.59,39.32
212.833,7/31/95,19:59:47,23.23,59.69,405.13,361.63,31.01,997.35,30.90,36.84,380.39,378.85,339.59,39.25
212.845,7/31/95,20:16:05,23.21,59.71,405.15,361.40,30.99,997.17,30.87,36.85,380.37,378.60,339.31,39.29
212.848,7/31/95,20:20:47,23.20,59.72,404.85,361.40,30.97,997.19,30.85,36.85,380.12,378.35,339.31,39.04
212.851,7/31/95,20:25:17,23.20,59.72,404.75,361.40,30.96,997.16,30.81,36.85,380.05,378.03,339.31,38.72
212.854,7/31/95,20:29:47,23.20,59.73,404.88,361.40,30.94,997.14,30.78,36.84,380.19,378.02,339.31,38.71
212.865,7/31/95,20:46:17,23.19,59.74,404.92,361.40,30.89,997.00,30.76,36.84,380.19,378.38,339.31,39.07
212.869,7/31/95,20:50:47,23.19,59.74,404.74,361.40,30.89,996.99,30.75,36.84,380.03,378.03,339.31,38.72
212.872,7/31/95,20:55:17,23.19,59.74,404.50,361.40,30.87,996.96,30.73,36.83,379.82,377.88,339.31,38.57
212.875,7/31/95,20:59:47,23.19,59.74,404.50,361.40,30.87,996.93,30.72,36.83,379.82,377.70,339.31,38.39
212.886,7/31/95,21:16:05,23.18,59.74,404.55,361.37,30.84,996.75,30.71,36.83,379.80,378.03,339.26,38.76
212.889,7/31/95,21:20:47,23.17,59.74,404.52,361.37,30.84,996.77,30.71,36.83,379.77,378.02,339.26,38.76
212.893,7/31/95,21:25:16,23.17,59.74,404.48,361.37,30.84,996.79,30.72,36.83,379.75,378.03,339.26,38.77
212.896,7/31/95,21:29:47,23.17,59.75,404.45,361.37,30.84,996.77,30.71,36.83,379.71,377.94,339.26,38.68
212.907,7/31/95,21:46:16,23.15,59.75,404.55,361.37,30.82,996.75,30.68,36.83,379.83,377.84,339.26,38.58
212.910,7/31/95,21:50:47,23.16,59.75,404.29,361.37,30.80,996.70,30.67,36.83,379.57,377.68,339.26,38.42
212.913,7/31/95,21:55:17,23.15,59.76,404.17,361.37,30.80,996.69,30.66,36.82,379.47,377.49,339.26,38.23
212.917,7/31/95,21:59:47,23.15,59.76,404.14,361.37,30.79,996.70,30.66,36.83,379.44,377.63,339.26,38.37
212.928,7/31/95,22:16:05,23.14,59.75,404.33,361.14,30.77,996.68,30.64,36.83,379.64,377.73,339.15,38.58
212.931,7/31/95,22:20:47,23.13,59.75,404.23,361.14,30.77,996.78,30.62,36.83,379.59,377.52,339.15,38.37
212.934,7/31/95,22:25:17,23.13,59.75,404.10,361.14,30.75,996.79,30.62,36.83,379.48,377.56,339.15,38.40
212.937,7/31/95,22:29:47,23.12,59.75,403.90,361.14,30.75,996.79,30.61,36.83,379.30,377.30,339.15,38.15
212.949,7/31/95,22:46:17,23.12,59.76,403.83,361.14,30.72,996.78,30.59,36.83,379.26,377.39,339.15,38.23
212.952,7/31/95,22:50:47,23.12,59.76,403.52,361.14,30.72,996.83,30.58,36.83,378.99,377.01,339.15,37.86
212.955,7/31/95,22:55:17,23.11,59.76,403.49,361.14,30.72,996.83,30.57,36.83,378.96,376.91,339.15,37.76
212.958,7/31/95,22:59:47,23.11,59.76,403.44,361.14,30.72,996.89,30.56,36.83,378.95,376.76,339.15,37.61
212.970,7/31/95,23:16:05,23.10,59.76,403.93,361.11,30.69,996.90,30.51,36.83,379.47,377.04,339.29,37.75
212.973,7/31/95,23:20:47,23.10,59.77,403.90,361.11,30.67,996.95,30.50,36.83,379.47,377.02,339.29,37.74
212.976,7/31/95,23:25:17,23.09,59.77,403.77,361.11,30.65,996.97,30.48,36.83,379.37,376.89,339.29,37.61
212.979,7/31/95,23:29:47,23.09,59.77,403.60,361.11,30.63,996.85,30.46,36.83,379.19,376.81,339.29,37.53
212.990,7/31/95,23:46:17,23.08,59.77,403.11,361.11,30.59,996.94,30.44,36.82,378.77,376.69,339.29,37.41
212.994,7/31/95,23:50:47,23.08,59.77,403.14,361.11,30.59,996.94,30.44,36.83,378.81,376.69,339.29,37.40
212.997,7/31/95,23:55:17,23.07,59.77,403.01,361.11,30.59,996.98,30.43,36.82,378.71,376.46,339.29,37.17
213.000,7/31/95,23:59:47,23.07,59.77,402.97,361.11,30.57,996.87,30.42,36.83,378.65,376.49,339.29,37.20
213.011,8/1/95,0:16:05,23.06,59.78,402.85,360.85,30.56,996.96,30.40,36.82,378.58,376.36,339.08,37.28
213.014,8/1/95,0:20:47,23.06,59.78,402.72,360.85,30.55,996.90,30.40,36.82,378.44,376.23,339.08,37.16
213.018,8/1/95,0:25:21,23.05,59.79,402.56,360.85,30.54,996.79,30.40,36.82,378.24,376.23,339.08,37.15
213.021,8/1/95,0:29:47,23.04,59.81,402.13,360.85,30.54,996.86,30.39,36.82,377.87,375.81,339.08,36.74
213.032,8/1/95,0:46:17,23.00,59.86,401.74,360.85,30.59,997.06,30.44,36.82,377.53,375.41,339.08,36.34
213.035,8/1/95,0:50:47,22.99,59.87,401.87,360.85,30.59,996.89,30.48,36.80,377.56,376.01,339.08,36.94
213.038,8/1/95,0:55:17,22.98,59.88,401.97,360.85,30.60,997.07,30.47,36.81,377.73,375.80,339.08,36.72
213.042,8/1/95,0:59:47,22.97,59.89,402.16,360.85,30.60,996.92,30.49,36.80,377.84,376.18,339.08,37.10
213.053,8/1/95,1:16:05,22.93,59.93,401.87,362.42,30.69,997.19,30.57,36.79,377.58,375.87,340.72,35.15
213.056,8/1/95,1:20:47,22.92,59.96,401.87,362.42,30.69,997.12,30.58,36.78,377.55,376.01,340.72,35.29
213.059,8/1/95,1:25:17,22.91,59.97,402.10,362.42,30.70,997.33,30.57,36.78,377.85,375.97,340.72,35.26
213.062,8/1/95,1:29:47,22.90,59.98,402.13,362.42,30.69,997.38,30.53,36.79,377.94,375.78,340.72,35.06
213.074,8/1/95,1:46:17,22.86,60.03,401.90,362.42,30.60,997.56,30.46,36.78,377.86,375.78,340.72,35.06
213.077,8/1/95,1:50:47,22.86,60.04,401.93,362.42,30.59,997.65,30.43,36.78,377.96,375.71,340.72,34.99
213.080,8/1/95,1:55:17,22.84,60.05,401.34,362.42,30.55,997.79,30.41,36.78,377.47,375.44,340.72,34.72
213.083,8/1/95,1:59:47,22.83,60.07,400.72,362.42,30.54,997.79,30.39,36.80,376.90,374.84,340.72,34.12
213.095,8/1/95,2:16:05,22.80,60.12,397.67,362.09,30.44,998.04,30.24,36.85,374.27,371.51,341.29,30.22
213.098,8/1/95,2:20:47,22.79,60.13,397.02,362.09,30.37,998.09,30.19,36.84,373.72,371.24,341.29,29.95
213.101,8/1/95,2:25:17,22.78,60.14,396.66,362.09,30.34,998.04,30.12,36.86,373.42,370.45,341.29,29.16
213.104,8/1/95,2:29:47,22.77,60.15,396.11,362.09,30.26,998.20,29.98,36.87,373.09,369.31,341.29,28.03
213.115,8/1/95,2:46:17,22.73,60.21,392.26,362.09,29.95,998.50,29.79,36.75,369.75,367.64,341.29,26.36
213.119,8/1/95,2:50:47,22.72,60.22,393.37,362.09,29.96,998.36,29.71,36.82,370.82,367.29,341.29,26.01
213.122,8/1/95,2:55:17,22.70,60.23,393.69,362.09,29.86,998.40,29.48,36.86,371.34,366.11,341.29,24.83
213.125,8/1/95,2:59:47,22.70,60.24,393.79,362.09,29.65,998.59,29.17,36.86,371.78,365.08,341.29,23.80
213.136,8/1/95,3:16:05,22.66,60.29,395.55,361.96,27.34,998.74,25.88,36.89,376.14,355.80,343.91,11.89
213.139,8/1/95,3:20:47,22.65,60.31,415.59,361.96,26.37,998.82,25.59,36.61,395.44,383.82,343.91,39.91
213.143,8/1/95,3:25:17,22.64,60.32,425.19,361.96,26.16,998.95,25.95,36.43,404.33,400.99,343.91,57.08
213.146,8/1/95,3:29:47,22.63,60.34,426.06,361.96,26.47,998.77,26.19,36.50,404.89,400.68,343.91,56.77
213.157,8/1/95,3:46:17,22.60,60.38,419.36,361.96,26.76,999.04,26.47,36.51,398.41,394.07,343.91,50.16
213.160,8/1/95,3:50:47,22.59,60.39,418.05,361.96,26.70,999.13,26.47,36.51,397.21,393.69,343.91,49.78
213.163,8/1/95,3:55:17,22.57,60.40,417.52,361.96,26.65,999.45,26.47,36.51,396.83,394.19,343.91,50.28
213.167,8/1/95,3:59:47,22.57,60.42,414.72,361.96,26.79,999.36,26.54,36.53,394.08,390.31,343.91,46.40
213.178,8/1/95,4:16:05,22.53,60.46,406.76,361.90,27.04,999.33,26.73,36.58,386.36,381.70,343.70,38.00
213.181,8/1/95,4:20:47,22.52,60.47,406.17,361.90,27.04,999.51,26.79,36.55,385.82,382.09,343.70,38.39
213.184,8/1/95,4:25:17,22.51,60.49,405.55,361.90,27.13,999.42,26.85,36.58,385.14,381.06,343.70,37.36
213.187,8/1/95,4:29:47,22.51,60.50,407.32,361.90,27.16,999.42,26.95,36.55,386.75,383.62,343.70,39.92
213.199,8/1/95,4:46:17,22.47,60.54,418.67,361.90,27.15,999.52,26.87,36.49,397.63,393.41,343.70,49.71
213.202,8/1/95,4:50:47,22.46,60.56,417.44,361.90,27.12,999.47,26.37,36.66,396.84,385.75,343.70,42.05
213.205,8/1/95,4:55:17,22.45,60.57,428.70,361.90,26.57,999.57,26.08,36.43,407.83,400.28,343.70,56.58
213.208,8/1/95,4:59:47,22.44,60.58,439.08,361.90,26.47,999.42,26.15,36.27,417.58,412.59,343.70,68.89
213.219,8/1/95,5:16:04,22.40,60.63,442.44,361.73,26.63,999.62,26.28,36.24,420.74,415.22,343.90,71.32
213.223,8/1/95,5:20:46,22.40,60.64,442.54,361.73,26.65,999.55,26.29,36.25,420.80,415.20,343.90,71.30
213.226,8/1/95,5:25:17,22.39,60.65,440.63,361.73,26.65,999.36,26.31,36.25,418.89,413.53,343.90,69.63
213.229,8/1/95,5:29:48,22.38,60.65,439.09,361.73,26.66,999.56,26.32,36.26,417.50,412.17,343.90,68.27
213.240,8/1/95,5:46:17,22.34,60.70,432.93,361.73,26.70,999.55,26.43,36.27,411.55,407.30,343.90,63.40
213.244,8/1/95,5:50:47,22.33,60.71,429.71,361.73,26.76,999.41,26.50,36.28,408.38,404.25,343.90,60.35
213.247,8/1/95,5:55:17,22.33,60.72,426.64,361.73,26.82,999.46,26.54,36.30,405.44,401.14,343.90,57.24
213.250,8/1/95,5:59:47,22.31,60.74,423.44,361.73,26.87,999.40,26.59,36.31,402.34,398.17,343.90,54.27
213.261,8/1/95,6:16:05,22.30,60.74,416.66,361.65,27.00,999.66,26.66,36.47,395.94,390.84,343.67,47.17
213.264,8/1/95,6:20:47,22.30,60.74,415.69,361.65,27.01,999.59,26.66,36.46,395.00,389.76,343.67,46.08
213.268,8/1/95,6:25:17,22.30,60.74,414.26,361.65,27.02,999.67,26.65,36.47,393.67,388.32,343.67,44.65
213.271,8/1/95,6:29:47,22.31,60.73,414.29,361.65,27.00,999.62,26.66,36.46,393.68,388.57,343.67,44.90
213.282,8/1/95,6:46:17,22.31,60.73,414.59,361.65,27.02,999.69,26.65,36.46,394.00,388.57,343.67,44.90
213.285,8/1/95,6:50:47,22.31,60.74,413.86,361.65,27.02,999.62,26.67,36.46,393.26,388.13,343.67,44.46
213.288,8/1/95,6:55:17,22.31,60.73,414.13,361.65,27.03,999.69,26.67,36.47,393.54,388.19,343.67,44.52
213.292,8/1/95,6:59:47,22.31,60.73,414.19,361.65,27.03,999.69,26.66,36.47,393.61,388.12,343.67,44.45
213.303,8/1/95,7:16:05,22.31,60.74,414.90,361.39,27.03,999.71,26.67,36.46,394.28,388.95,343.37,45.58
213.306,8/1/95,7:20:47,22.31,60.74,413.53,361.39,27.04,999.71,26.67,36.46,392.98,387.44,343.37,44.07
213.309,8/1/95,7:25:17,22.31,60.74,413.60,361.39,27.03,999.70,26.67,36.46,393.04,387.76,343.37,44.39
213.312,8/1/95,7:29:47,22.31,60.74,415.90,361.39,27.04,999.74,26.68,36.46,395.24,389.81,343.37,46.44
213.324,8/1/95,7:46:17,22.31,60.74,419.05,361.39,27.06,999.50,26.69,36.46,398.13,392.58,343.37,49.21
213.327,8/1/95,7:50:46,22.30,60.73,418.95,361.39,27.07,999.43,26.70,36.47,398.00,392.35,343.37,48.98
213.330,8/1/95,7:55:16,22.30,60.74,418.82,361.39,27.09,999.40,26.70,36.47,397.86,391.98,343.37,48.61
213.333,8/1/95,7:59:47,22.29,60.74,418.62,361.39,27.07,999.41,26.70,36.47,397.67,392.11,343.37,48.74
213.345,8/1/95,8:16:05,22.29,60.74,416.12,361.46,27.12,999.36,26.73,36.49,395.26,389.39,343.31,46.08
213.348,8/1/95,8:20:47,22.28,60.74,415.65,361.46,27.13,999.31,26.72,36.49,394.80,388.69,343.31,45.38
213.351,8/1/95,8:25:17,22.28,60.74,415.38,361.46,27.12,999.21,26.71,36.49,394.51,388.42,343.31,45.12
213.354,8/1/95,8:29:47,22.27,60.74,415.55,361.46,27.12,999.32,26.71,36.48,394.72,388.57,343.31,45.26
213.365,8/1/95,8:46:17,22.27,60.74,416.22,361.46,27.12,999.25,26.69,36.48,395.34,388.91,343.31,45.60
213.369,8/1/95,8:50:47,22.26,60.74,416.39,361.46,27.10,999.11,26.68,36.48,395.45,389.18,343.31,45.88
213.372,8/1/95,8:55:17,22.26,60.74,416.42,361.46,27.10,999.18,26.69,36.48,395.51,389.29,343.31,45.98
213.375,8/1/95,8:59:47,22.25,60.74,416.42,361.46,27.10,999.07,26.68,36.49,395.47,389.20,343.31,45.89
213.386,8/1/95,9:16:05,22.25,60.74,420.45,361.41,27.07,998.71,26.59,36.41,399.22,391.95,343.30,48.64
213.389,8/1/95,9:20:47,22.25,60.74,422.40,361.41,27.03,998.85,26.54,36.38,401.17,393.82,343.30,50.52
213.393,8/1/95,9:25:17,22.25,60.75,424.80,361.41,26.99,998.86,26.50,36.34,403.49,396.16,343.30,52.86
213.396,8/1/95,9:29:47,22.25,60.74,426.66,361.41,26.96,998.84,26.47,36.31,405.27,397.88,343.30,54.57
213.407,8/1/95,9:46:17,22.24,60.75,431.96,361.41,26.88,998.70,26.41,36.27,410.30,403.02,343.30,59.72
213.410,8/1/95,9:50:47,22.24,60.75,433.05,361.41,26.87,998.81,26.40,36.27,411.39,404.12,343.30,60.82
213.413,8/1/95,9:55:17,22.24,60.75,433.49,361.41,26.85,998.75,26.39,36.25,411.79,404.67,343.30,61.37
213.417,8/1/95,9:59:47,22.23,60.74,433.87,361.41,26.85,998.76,26.39,36.24,412.15,405.07,343.30,61.76
213.428,8/1/95,10:16:05,22.24,60.74,432.66,361.18,26.87,998.68,26.43,36.23,410.94,404.14,342.98,61.17
213.431,8/1/95,10:20:47,22.24,60.74,431.81,361.18,26.88,998.62,26.44,36.22,410.09,403.38,342.98,60.40
213.434,8/1/95,10:25:16,22.24,60.73,431.13,361.18,26.89,998.64,26.46,36.23,409.44,402.77,342.98,59.79
213.437,8/1/95,10:29:47,22.23,60.73,430.14,361.18,26.90,998.61,26.46,36.23,408.49,401.73,342.98,58.75
213.449,8/1/95,10:46:17,22.23,60.72,427.76,361.18,26.94,998.70,26.50,36.23,406.23,399.49,342.98,56.52
213.452,8/1/95,10:50:47,22.22,60.73,427.18,361.18,26.94,998.76,26.51,36.23,405.70,399.15,342.98,56.18
213.455,8/1/95,10:55:17,22.22,60.72,426.64,361.18,26.96,998.86,26.53,36.23,405.21,398.68,342.98,55.70
213.458,8/1/95,10:59:47,22.22,60.72,426.00,361.18,26.97,998.89,26.54,36.24,404.60,398.03,342.98,55.05
213.470,8/1/95,11:16:05,22.22,60.71,424.57,361.12,27.00,998.77,26.55,36.25,403.19,396.36,342.97,53.39
213.473,8/1/95,11:20:47,22.22,60.71,424.43,361.12,27.00,998.75,26.55,36.25,403.06,396.16,342.97,53.19
213.476,8/1/95,11:25:17,22.21,60.71,423.99,361.12,27.00,998.87,26.55,36.24,402.68,395.88,342.97,52.91
213.479,8/1/95,11:29:47,22.21,60.70,423.59,361.12,27.00,998.84,26.55,36.24,402.29,395.44,342.97,52.47
213.490,8/1/95,11:46:17,22.21,60.70,422.41,361.12,27.00,998.90,26.55,36.24,401.19,394.40,342.97,51.43
213.494,8/1/95,11:50:47,22.21,60.70,422.24,361.12,27.00,998.92,26.57,36.24,401.02,394.50,342.97,51.53
213.497,8/1/95,11:55:17,22.20,60.70,421.87,361.12,27.02,998.98,26.58,36.24,400.68,394.15,342.97,51.18
213.500,8/1/95,11:59:47,22.20,60.70,421.33,361.12,27.03,998.92,26.59,36.25,400.14,393.48,342.97,50.50
213.511,8/1/95,12:16:05,22.19,60.70,420.46,361.04,27.03,998.94,26.58,36.25,399.34,392.55,342.98,49.57
213.514,8/1/95,12:20:47,22.19,60.70,420.09,361.04,27.03,998.96,26.58,36.25,398.99,392.24,342.98,49.27
213.518,8/1/95,12:25:17,22.19,60.70,419.46,361.04,27.03,999.01,26.58,36.25,398.41,391.64,342.98,48.66
213.521,8/1/95,12:29:47,22.19,60.70,419.19,361.04,27.03,998.99,26.57,36.25,398.15,391.32,342.98,48.35
213.532,8/1/95,12:46:17,22.19,60.70,419.12,361.04,27.02,999.09,26.57,36.25,398.13,391.39,342.98,48.42
213.535,8/1/95,12:50:47,22.19,60.71,418.95,361.04,27.00,999.30,26.56,36.26,398.06,391.45,342.98,48.47
213.538,8/1/95,12:55:17,22.18,60.71,419.22,361.04,27.00,999.10,26.55,36.26,398.24,391.56,342.98,48.58
213.542,8/1/95,12:59:47,22.18,60.71,419.46,361.04,26.99,999.16,26.55,36.26,398.49,392.01,342.98,49.03
213.553,8/1/95,13:16:05,22.17,60.70,419.88,360.71,26.99,999.20,26.55,36.26,398.91,392.36,342.71,49.65
213.556,8/1/95,13:20:47,22.17,60.70,419.85,360.71,26.98,999.20,26.55,36.26,398.88,392.42,342.71,49.71
213.559,8/1/95,13:25:17,22.17,60.70,420.02,360.71,26.97,999.22,26.55,36.26,399.05,392.70,342.71,50.00
213.562,8/1/95,13:29:47,22.17,60.71,420.15,360.71,26.97,999.24,26.55,36.26,399.18,392.86,342.71,50.15
213.574,8/1/95,13:46:17,22.17,60.71,420.59,360.71,26.99,999.33,26.56,36.27,399.62,393.29,342.71,50.58
213.577,8/1/95,13:50:47,22.17,60.71,421.06,360.71,26.98,999.34,26.57,36.27,400.08,393.83,342.71,51.12
213.580,8/1/95,13:55:17,22.17,60.71,421.47,360.71,26.97,999.31,26.56,36.27,400.45,394.31,342.71,51.60
213.583,8/1/95,13:59:47,22.16,60.71,421.47,360.71,26.97,999.23,26.56,36.27,400.42,394.21,342.71,51.51
213.595,8/1/95,14:16:05,22.17,60.71,421.66,360.50,26.96,999.43,26.55,36.26,400.70,394.54,342.62,51.92
213.598,8/1/95,14:20:47,22.16,60.71,421.80,360.50,26.95,999.57,26.54,36.26,400.88,394.75,342.62,52.13
213.601,8/1/95,14:25:17,22.16,60.70,421.59,360.50,26.94,999.58,26.54,36.26,400.70,394.65,342.62,52.04
213.604,8/1/95,14:29:47,22.16,60.70,421.59,360.50,26.94,999.55,26.53,36.26,400.69,394.56,342.62,51.94
213.615,8/1/95,14:46:17,22.15,60.70,421.93,360.50,26.91,999.66,26.52,36.26,401.07,395.15,342.62,52.54
213.619,8/1/95,14:50:47,22.16,60.71,422.27,360.50,26.91,999.88,26.52,36.25,401.48,395.50,342.62,52.88
213.622,8/1/95,14:55:17,22.15,60.71,422.23,360.50,26.91,999.68,26.52,36.26,401.37,395.40,342.62,52.79
213.625,8/1/95,14:59:47,22.15,60.71,422.27,360.50,26.90,999.74,26.51,36.26,401.42,395.62,342.62,53.01
213.636,8/1/95,15:16:05,22.14,60.71,421.92,360.59,26.88,999.89,26.48,36.25,401.18,395.06,342.97,52.09
213.639,8/1/95,15:20:47,22.14,60.71,422.52,360.59,26.87,999.96,26.49,36.25,401.77,396.07,342.97,53.10
213.643,8/1/95,15:25:17,22.14,60.71,422.56,360.59,26.87,999.96,26.50,36.26,401.80,396.28,342.97,53.31
213.646,8/1/95,15:29:46,22.14,60.71,422.42,360.59,26.88,1000.03,26.51,36.26,401.69,396.02,342.97,53.05
213.657,8/1/95,15:46:17,22.13,60.70,422.12,360.59,26.87,1000.21,26.49,36.26,401.49,395.82,342.97,52.85
213.660,8/1/95,15:50:47,22.14,60.71,422.32,360.59,26.87,1000.38,26.48,36.26,401.76,395.90,342.97,52.92
213.678,8/1/95,16:16:17,22.14,60.70,428.01,360.58,26.77,1000.70,26.39,36.26,407.38,401.44,343.15,58.29